Regional Weather Roundup
Issued by NWS

Home | Current Version | Previous Version | Graphics & Text | Print | Product List | Glossary On
Versions: 1 2 3 4 5 6 7 8 9 10 11 12 13 14 15 16 17 18 19 20 21 22 23 24 25 26 27 28 29 30 31 32 33 34 35 36 37 38 39 40 41 42 43 44 45 46 47 48 49 50
000
ASUS43 KDTX 171401
RWRMI
MICHIGAN HOURLY REGIONAL WEATHER ROUNDUP
NATIONAL WEATHER SERVICE DETROIT/PONTIAC MI
1000 AM EDT THU APR 17 2014

NOTE: "FAIR" INDICATES FEW OR NO CLOUDS BELOW 12,000 FEET WITH NO
SIGNIFICANT WEATHER AND/OR OBSTRUCTION TO VISIBILITY.

MIZ047>049-052>055-059>063-066>070-074>076-081>083-171500-
SOUTHEAST LOWER MICHIGAN

CITY           SKY/WX    TMP DP  RH WIND       PRES   REMARKS
ADRIAN         SUNNY     43  26  51 S8        30.32S
ALMA           MOSUNNY   38  27  63 SE9       30.30F WCI  32
ANN ARBOR      SUNNY     44  29  55 S9        30.33S
BAD AXE        MOSUNNY   38  25  59 SE14      30.37S WCI  29
CARO           MOSUNNY   41  24  50 SE10G21   30.34S
DETROIT CITY   SUNNY     46  27  47 SE9       30.35F
DETROIT        PTSUNNY   46  28  49 SE9       30.35S
FLINT          MOSUNNY   45  27  49 SE15      30.33S
GROSSE ILE       N/A     45  28  53 SE10      30.33F
HILLSDALE      SUNNY     43  24  45 S12       30.28S
HOWELL         SUNNY     43  26  51 S10       30.31S

CITY           SKY/WX    TMP DP  RH WIND       PRES   REMARKS
JACKSON        SUNNY     44  25  47 SE13      30.29S
LAMBERTVILLE   SUNNY     46  27  46 S8        30.33S
LANSING        MOSUNNY   43  26  51 SE14      30.29S
LAPEER         FAIR      40  27  60 SE9       30.34S WCI  34
MASON          SUNNY     42  29  58 SE9G20    30.29S
MONROE         SUNNY     45  25  45 S9        30.32F
MT. CLEMENS    CLOUDY    43  30  60 SE13      30.35S
PONTIAC        PTSUNNY   43  25  49 SE12      30.32F
PORT HOPE        N/A     37  26  64 SE15G25   30.36F WCI  28
PORT HURON     MOSUNNY   43  27  52 SE8       30.37F
TRI CITIES     PTSUNNY   40  26  57 SE10      30.33F WCI  33
TROY           SUNNY     44  25  48 SE7       30.35F
SAGINAW HB     PTSUNNY   41  27  56 SE13      30.32F
YPSILANTI      SUNNY     48  30  49 SE10      30.33F
$$
MIZ043>046-050>051-056>058-064>065-071>073-077>080-171500-
SOUTHWEST LOWER MICHIGAN

CITY           SKY/WX    TMP DP  RH WIND       PRES   REMARKS
BATTLE CREEK   SUNNY     45  24  43 S14       30.26R
BENTON HARBOR  CLOUDY    46  27  47 SE13      30.20F
BIG RAPIDS     PTSUNNY   39  25  57 SE15      30.22F WCI  31
COLDWATER      SUNNY     44  25  46 SE13      30.27S
FREMONT        FAIR      41  25  53 SE13G18   30.20F
HOLLAND        CLOUDY    47  28  47 SE13      30.21F
GRAND RAPIDS   PTSUNNY   44  26  49 SE12      30.24F
IONIA          FAIR      43  28  56 SE13      30.26F
KALAMAZOO      MOSUNNY   45  25  45 S10       30.24F
LUDINGTON      CLOUDY    39  27  61 SE17G24   30.16F WCI  30
MARSHALL       SUNNY     44  23  44 S9G17     30.26F
MOUNT PLEASANT PTSUNNY   39  26  59 SE12G18   30.29F WCI  32
MUSKEGON       CLOUDY    44  25  47 SE15      30.19F
SOUTH HAVEN    CLOUDY    46  26  45 S12G17    30.20F
$$
MIZ016>042-171500-
NORTHERN LOWER MICHIGAN

CITY           SKY/WX    TMP DP  RH WIND       PRES   REMARKS
ALPENA         PTSUNNY   36  26  67 SE14G25   30.39S WCI  27
BEAVER ISLAND  CLOUDY    36  26  66 E13G21    30.25F WCI  27
BELLAIRE       PTSUNNY   41  20  43 SE14G21   30.24F
CADILLAC       CLOUDY    37  24  58 SE14      30.21F WCI  28
CHARLEVOIX     PTSUNNY   40  23  50 SE14G22   30.27F WCI  32
FRANKFORT      CLOUDY    40  23  51 SE8       30.20S WCI  34
GAYLORD        PTSUNNY   35  22  58 SE16G24   30.26F WCI  25
GRAYLING       PTSUNNY   38  21  52 SE17G23   30.27F WCI  28
HARBOR SPRINGS CLOUDY    39  24  55 E16       30.27F WCI  30
HOUGHTON LAKE  CLOUDY    37  22  54 SE16G24   30.27F WCI  28
MANISTEE       CLOUDY    39  21  48 SE12G18   30.19F WCI  32
OSCODA         MOSUNNY   38  27  63 SE13      30.38S WCI  30
PELLSTON       PTSUNNY   39  24  55 SE16G23   30.30F WCI  30
ROGERS CITY    MOSUNNY   37  27  66 SE10G20   30.38F WCI  30
TRAVERSE CITY  CLOUDY    39  21  48 SE10G23   30.21F WCI  32
$$
MIZ007>008-015-171500-
EASTERN UPPER MICHIGAN

CITY           SKY/WX    TMP DP  RH WIND       PRES   REMARKS
KINROSS        PTSUNNY   30  28  93 E22G35    30.35F WCI  17
MACKINAC ISLAN PTSUNNY   33  30  88 E14G31    30.32F WCI  23
NEWBERRY       PTSUNNY   32  28  84 E22       30.27F WCI  20
S. S. MARIE    CLOUDY    31  25  78 E15G22    30.37F WCI  20
MUNISING         N/A     36  26  67 SE12G20   30.21F WCI  28
$$
MIZ004>006-011>014-085-171500-
CENTRAL UPPER MICHIGAN

CITY           SKY/WX    TMP DP  RH WIND       PRES   REMARKS
MANISTIQUE     CLOUDY    33  28  85 E14G25    30.23F WCI  23
ESCANABA       CLOUDY    34  27  75 SE20G25   30.19R WCI  22
MENOMINEE      CLOUDY    34  30  86 SE9       30.15S WCI  26
SAWYER-GWINN   LGT SNOW  30  27  86 SE13G18   30.17S WCI  20
$$
MIZ001>003-009>011-084-171500-
WESTERN UPPER MICHIGAN

CITY           SKY/WX    TMP DP  RH WIND       PRES   REMARKS
IRON MOUNTAIN  HVY SNOW  31  29  92 E7        30.12S VSB 1/4 WCI  24
HOUGHTON       SNOW      30  27  88 E15G24    30.17S VSB 1/4 WCI  19
COPPER HARBOR    N/A     32  29  88 S13G22    30.22S WCI  22
IRONWOOD       CLOUDY    32  28  86 CALM      30.06R VSB 3/4
$$

ABBREVIATIONS USED IN REMARKS
   TC - TEMPERATURE IN CELSIUS
  WCI - WIND CHILL INDEX
   HX - HEAT INDEX
  VSB - VISIBILITY




USA.gov is the U.S. government's official web portal to all federal, state and local government web resources and services.